timestamp,wind_dir_avg,wind_spd_avg,wind_spd_max_dir,wind_spd_gust,battery_voltage,lat,long
2024-02-27 00:04:00+00:00,254.0,3.37,255.0,3.39,12.25,47.59359,-54.27349
2024-02-27 00:14:00+00:00,251.0,3.29,249.0,3.43,12.17,47.59359,-54.27349
2024-02-27 00:24:00+00:00,315.0,0.01,244.0,0.0,12.17,47.59359,-54.27349
2024-02-27 00:34:00+00:00,251.0,5.06,251.0,5.39,12.17,47.59359,-54.27349
2024-02-27 00:44:00+00:00,257.0,5.83,255.0,6.3,12.17,47.59359,-54.27349
2024-02-27 00:54:00+00:00,251.0,4.89,252.0,5.26,12.17,47.59359,-54.27349
2024-02-27 01:04:00+00:00,249.0,4.88,248.0,5.35,12.17,47.59359,-54.27349
2024-02-27 01:14:00+00:00,245.0,5.39,244.0,6.3,12.17,47.59359,-54.27349
2024-02-27 01:24:00+00:00,245.0,5.75,245.0,6.53,12.17,47.59359,-54.27349
2024-02-27 01:34:00+00:00,252.0,5.25,249.0,5.71,12.17,47.59359,-54.27349
2024-02-27 01:44:00+00:00,257.0,5.05,255.0,5.62,12.17,47.59359,-54.27349
2024-02-27 01:54:00+00:00,259.0,5.12,256.0,5.65,12.17,47.59359,-54.27349
2024-02-27 02:04:00+00:00,259.0,5.25,260.0,5.84,12.17,47.59359,-54.27349
2024-02-27 02:14:00+00:00,261.0,4.96,264.0,5.56,12.09,47.59359,-54.27349
2024-02-27 02:24:00+00:00,244.0,4.11,253.0,6.21,12.09,47.59359,-54.27349
2024-02-27 02:34:00+00:00,260.0,4.54,255.0,5.91,12.09,47.59359,-54.27349
2024-02-27 02:44:00+00:00,246.0,4.17,238.0,5.49,12.09,47.59359,-54.27349
2024-02-27 02:54:00+00:00,259.0,5.03,267.0,7.68,12.09,47.59359,-54.27349
2024-02-27 03:04:00+00:00,251.0,4.96,249.0,5.34,12.09,47.59359,-54.27349
2024-02-27 03:14:00+00:00,237.0,4.86,234.0,5.88,12.09,47.59359,-54.27349
2024-02-27 03:24:00+00:00,238.0,5.06,237.0,5.69,12.09,47.59359,-54.27349
2024-02-27 03:34:00+00:00,238.0,4.79,236.0,5.87,12.09,47.59359,-54.27349
2024-02-27 03:44:00+00:00,235.0,4.76,231.0,5.56,12.09,47.59359,-54.27349
2024-02-27 03:54:00+00:00,232.0,5.47,243.0,6.64,12.09,47.59359,-54.27349
2024-02-27 04:04:00+00:00,224.0,4.94,242.0,6.93,12.09,47.59359,-54.27349
2024-02-27 04:14:00+00:00,218.0,4.53,238.0,6.03,12.09,47.59359,-54.27349
2024-02-27 04:24:00+00:00,239.0,4.27,250.0,5.42,12.09,47.59359,-54.27349
2024-02-27 04:34:00+00:00,232.0,5.05,243.0,6.21,12.09,47.59359,-54.27349
2024-02-27 04:44:00+00:00,233.0,5.11,231.0,6.15,12.09,47.59359,-54.27349
2024-02-27 04:54:00+00:00,232.0,5.43,223.0,6.37,12.09,47.59359,-54.27349
2024-02-27 05:04:00+00:00,231.0,5.71,232.0,6.32,12.09,47.59359,-54.27349
2024-02-27 05:14:00+00:00,234.0,5.15,236.0,6.05,12.09,47.59359,-54.27349
2024-02-27 05:24:00+00:00,231.0,6.27,235.0,7.68,12.09,47.59359,-54.27349
2024-02-27 05:34:00+00:00,228.0,6.52,227.0,7.3,12.09,47.59359,-54.27349
2024-02-27 05:44:00+00:00,237.0,8.71,247.0,11.82,12.09,47.59359,-54.27349
2024-02-27 05:54:00+00:00,236.0,7.64,248.0,8.98,12.09,47.59359,-54.27349
2024-02-27 06:04:00+00:00,239.0,8.36,239.0,9.21,12.09,47.59359,-54.27349
2024-02-27 06:14:00+00:00,237.0,7.49,239.0,8.42,12.01,47.59359,-54.27349
2024-02-27 06:24:00+00:00,233.0,7.69,233.0,9.36,12.01,47.59359,-54.27349
2024-02-27 06:34:00+00:00,229.0,5.96,230.0,6.81,12.01,47.59359,-54.27349
2024-02-27 06:44:00+00:00,228.0,6.35,227.0,7.5,12.01,47.59359,-54.27349
2024-02-27 06:54:00+00:00,229.0,7.56,230.0,8.69,12.01,47.59359,-54.27349
2024-02-27 07:04:00+00:00,227.0,7.39,237.0,8.74,12.01,47.59359,-54.27349
2024-02-27 07:14:00+00:00,225.0,6.96,229.0,8.13,12.01,47.59359,-54.27349
2024-02-27 07:24:00+00:00,229.0,8.4,228.0,10.17,12.01,47.59359,-54.27349
2024-02-27 07:34:00+00:00,231.0,7.23,233.0,8.6,12.01,47.59359,-54.27349
2024-02-27 07:44:00+00:00,226.0,7.18,226.0,8.19,12.01,47.59359,-54.27349
2024-02-27 07:54:00+00:00,229.0,8.08,227.0,9.64,12.01,47.59359,-54.27349
2024-02-27 08:04:00+00:00,227.0,9.24,228.0,11.11,12.01,47.59359,-54.27349
2024-02-27 08:14:00+00:00,219.0,8.17,219.0,8.89,11.93,47.59359,-54.27349
2024-02-27 08:24:00+00:00,227.0,7.29,237.0,8.89,11.93,47.59359,-54.27349
2024-02-27 08:34:00+00:00,226.0,7.29,230.0,9.04,11.93,47.59359,-54.27349
2024-02-27 08:44:00+00:00,225.0,7.55,218.0,8.83,11.93,47.59359,-54.27349
2024-02-27 08:54:00+00:00,228.0,8.12,227.0,9.04,11.93,47.59359,-54.27349
2024-02-27 09:04:00+00:00,226.0,8.43,225.0,12.74,11.93,47.59359,-54.27349
2024-02-27 09:14:00+00:00,235.0,8.43,240.0,9.76,11.93,47.59359,-54.27349
2024-02-27 09:24:00+00:00,232.0,9.29,235.0,10.75,11.93,47.59359,-54.27349
2024-02-27 09:34:00+00:00,231.0,9.7,233.0,11.16,11.93,47.59359,-54.27349
2024-02-27 09:44:00+00:00,235.0,8.87,237.0,11.09,11.93,47.59359,-54.27349
2024-02-27 09:54:00+00:00,233.0,8.62,239.0,10.68,11.93,47.59359,-54.27349
2024-02-27 10:04:00+00:00,236.0,9.53,239.0,11.36,11.93,47.59359,-54.27349
2024-02-27 10:14:00+00:00,238.0,10.37,234.0,11.78,11.93,47.59359,-54.27349
2024-02-27 10:24:00+00:00,242.0,9.88,240.0,11.32,11.93,47.59359,-54.27349
2024-02-27 10:34:00+00:00,241.0,9.81,245.0,11.38,11.93,47.59359,-54.27349
2024-02-27 10:44:00+00:00,245.0,10.25,240.0,11.58,11.93,47.59359,-54.27349
2024-02-27 10:54:00+00:00,241.0,10.25,242.0,11.63,11.93,47.59359,-54.27349
2024-02-27 11:04:00+00:00,240.0,9.27,242.0,11.25,11.93,47.59359,-54.27349
2024-02-27 11:14:00+00:00,240.0,7.0,251.0,9.71,11.93,47.59359,-54.27349
2024-02-27 11:24:00+00:00,242.0,7.99,247.0,10.32,11.93,47.59359,-54.27349
2024-02-27 11:34:00+00:00,242.0,9.52,237.0,11.14,11.93,47.59359,-54.27349
2024-02-27 11:44:00+00:00,243.0,10.55,240.0,11.68,11.93,47.59359,-54.27349
2024-02-27 11:54:00+00:00,242.0,8.07,250.0,10.97,11.93,47.59359,-54.27349
2024-02-27 12:04:00+00:00,239.0,7.59,246.0,10.25,11.93,47.59359,-54.27349
2024-02-27 12:14:00+00:00,242.0,7.84,251.0,10.78,12.09,47.59359,-54.27349
2024-02-27 12:24:00+00:00,242.0,9.59,241.0,11.08,12.09,47.59359,-54.27349
2024-02-27 12:34:00+00:00,236.0,7.11,251.0,9.7,12.09,47.59359,-54.27349
2024-02-27 12:44:00+00:00,240.0,8.26,245.0,10.19,12.09,47.59359,-54.27349
2024-02-27 12:54:00+00:00,244.0,8.04,249.0,9.88,12.09,47.59359,-54.27349
2024-02-27 13:04:00+00:00,239.0,5.83,250.0,9.29,12.09,47.59359,-54.27349
2024-02-27 13:14:00+00:00,242.0,7.91,252.0,11.98,13.92,47.59359,-54.27349
2024-02-27 13:24:00+00:00,242.0,6.73,251.0,9.3,13.92,47.59359,-54.27349
2024-02-27 13:34:00+00:00,230.0,5.82,240.0,8.44,13.92,47.59359,-54.27349
2024-02-27 13:44:00+00:00,229.0,4.98,234.0,6.13,13.92,47.59359,-54.27349
2024-02-27 13:54:00+00:00,249.0,5.88,254.0,8.71,13.92,47.59359,-54.27349
2024-02-27 14:04:00+00:00,265.0,10.08,263.0,10.96,13.92,47.59359,-54.27349
2024-02-27 14:14:00+00:00,266.0,10.03,267.0,10.98,13.6,47.59359,-54.27349
2024-02-27 14:24:00+00:00,266.0,9.44,268.0,10.83,13.6,47.59359,-54.27349
2024-02-27 14:34:00+00:00,267.0,9.42,269.0,10.4,13.6,47.59359,-54.27349
2024-02-27 14:44:00+00:00,274.0,9.02,277.0,10.74,13.6,47.59359,-54.27349
2024-02-27 14:54:00+00:00,277.0,8.63,277.0,10.86,13.6,47.59359,-54.27349
2024-02-27 15:04:00+00:00,274.0,8.58,277.0,10.63,13.6,47.59359,-54.27349
2024-02-27 15:14:00+00:00,259.0,9.89,264.0,10.82,13.68,47.59359,-54.27349
2024-02-27 15:24:00+00:00,270.0,9.4,271.0,10.22,13.68,47.59359,-54.27349
2024-02-27 15:34:00+00:00,264.0,10.04,264.0,10.9,13.68,47.59359,-54.27349
2024-02-27 15:44:00+00:00,270.0,8.22,275.0,11.42,13.68,47.59359,-54.27349
2024-02-27 15:54:00+00:00,267.0,10.85,266.0,11.92,13.68,47.59359,-54.27349
2024-02-27 16:04:00+00:00,268.0,7.71,270.0,9.35,13.68,47.59359,-54.27349
2024-02-27 16:14:00+00:00,270.0,8.43,270.0,10.9,14.32,47.59359,-54.27349
2024-02-27 16:24:00+00:00,271.0,7.85,273.0,10.1,14.32,47.59359,-54.27349
2024-02-27 16:34:00+00:00,272.0,8.88,271.0,10.88,14.32,47.59359,-54.27349
2024-02-27 16:44:00+00:00,268.0,10.31,268.0,10.92,14.32,47.59359,-54.27349
2024-02-27 16:54:00+00:00,268.0,8.96,266.0,10.8,14.32,47.59359,-54.27349
2024-02-27 17:04:00+00:00,275.0,9.12,278.0,10.95,14.32,47.59359,-54.27349
2024-02-27 17:14:00+00:00,266.0,8.94,266.0,11.04,13.6,47.59359,-54.27349
2024-02-27 17:24:00+00:00,270.0,9.29,271.0,10.88,13.6,47.59359,-54.27349
2024-02-27 17:34:00+00:00,267.0,10.14,270.0,10.84,13.6,47.59359,-54.27349
2024-02-27 17:44:00+00:00,256.0,8.63,257.0,10.53,13.6,47.59359,-54.27349
2024-02-27 17:54:00+00:00,263.0,9.89,262.0,10.85,13.6,47.59359,-54.27349
2024-02-27 18:04:00+00:00,257.0,9.73,261.0,10.83,13.6,47.59359,-54.27349
2024-02-27 18:14:00+00:00,259.0,9.46,261.0,10.08,14.32,47.59359,-54.27349
2024-02-27 18:24:00+00:00,244.0,6.25,254.0,9.41,14.32,47.59359,-54.27349
2024-02-27 18:34:00+00:00,261.0,8.67,259.0,10.59,14.32,47.59359,-54.27349
2024-02-27 18:44:00+00:00,256.0,9.77,258.0,10.9,14.32,47.59359,-54.27349
2024-02-27 18:54:00+00:00,254.0,9.34,256.0,11.22,14.32,47.59359,-54.27349
2024-02-27 19:04:00+00:00,261.0,8.89,260.0,11.15,14.32,47.59359,-54.27349
2024-02-27 19:14:00+00:00,260.0,8.58,264.0,10.68,13.92,47.59359,-54.27349
2024-02-27 19:24:00+00:00,247.0,5.69,256.0,10.14,13.92,47.59359,-54.27349
2024-02-27 19:34:00+00:00,247.0,9.86,248.0,10.95,13.92,47.59359,-54.27349
2024-02-27 19:44:00+00:00,245.0,10.32,245.0,11.3,13.92,47.59359,-54.27349
2024-02-27 19:54:00+00:00,250.0,8.97,252.0,10.44,13.92,47.59359,-54.27349
2024-02-27 20:04:00+00:00,249.0,10.47,250.0,11.16,13.92,47.59359,-54.27349
2024-02-27 20:14:00+00:00,251.0,10.15,250.0,11.02,13.53,47.59359,-54.27349
2024-02-27 20:24:00+00:00,247.0,9.73,252.0,11.46,13.53,47.59359,-54.27349
2024-02-27 20:34:00+00:00,241.0,10.1,244.0,11.49,13.53,47.59359,-54.27349
2024-02-27 20:44:00+00:00,245.0,10.85,244.0,11.55,13.53,47.59359,-54.27349
2024-02-27 20:54:00+00:00,242.0,10.46,242.0,11.86,13.53,47.59359,-54.27349
2024-02-27 21:04:00+00:00,245.0,10.62,246.0,13.15,13.53,47.59359,-54.27349
2024-02-27 21:14:00+00:00,246.0,10.03,251.0,11.26,13.05,47.59359,-54.27349
2024-02-27 21:24:00+00:00,249.0,10.37,244.0,11.74,13.05,47.59359,-54.27349
2024-02-27 21:34:00+00:00,248.0,9.56,250.0,11.35,13.05,47.59359,-54.27349
2024-02-27 21:44:00+00:00,249.0,10.44,251.0,11.3,13.05,47.59359,-54.27349
2024-02-27 21:54:00+00:00,246.0,9.55,242.0,11.12,13.05,47.59359,-54.27349
2024-02-27 22:04:00+00:00,247.0,9.88,240.0,10.79,13.05,47.59359,-54.27349
2024-02-27 22:14:00+00:00,246.0,10.75,245.0,11.26,12.41,47.59359,-54.27349
2024-02-27 22:24:00+00:00,247.0,9.89,250.0,11.18,12.41,47.59359,-54.27349
2024-02-27 22:34:00+00:00,242.0,10.75,242.0,11.67,12.41,47.59359,-54.27349
2024-02-27 22:44:00+00:00,231.0,6.15,243.0,9.55,12.41,47.59359,-54.27349
2024-02-27 22:54:00+00:00,246.0,9.01,248.0,10.85,12.41,47.59359,-54.27349
2024-02-27 23:04:00+00:00,234.0,11.12,231.0,12.35,12.41,47.59359,-54.27349
2024-02-27 23:14:01+00:00,238.0,10.7,233.0,11.74,12.25,47.59359,-54.27349
2024-02-27 23:24:01+00:00,243.0,10.09,240.0,11.51,12.25,47.59359,-54.27349
2024-02-27 23:34:01+00:00,241.0,10.86,240.0,11.93,12.25,47.59359,-54.27349
2024-02-27 23:44:01+00:00,240.0,8.01,241.0,10.56,12.25,47.59359,-54.27349
2024-02-27 23:54:01+00:00,246.0,9.87,243.0,10.96,12.25,47.59359,-54.27349
